Pagrindinis puslapis
METAR-TAF:

METAR-TAF

Oro uostai :

Hemavan, Švedija

platuma: 65-48-22N, ilguma: 015-04-58E, Aukštis: 458 m

Dabartinis oras

Ataskaita buvo paskelbta 42 minutes, ne 04:20 UTC
Ramus vėjas
Temperatūra 4°C
Drėgmė 87%
Slėgis 1022 hPa
Matomumas 10 km arba daugiau

METAR: ESUT 220420Z AUTO 00000KT 9999 NCD 04/02 Q1022

Laikas: 07:02 (05:02 UTC)


TAF: trūkstamas

Orai ataskaitas ir orų prognozės (METAR, TAF).

turimą stotys yra geltonos ir raudonos taškus žemėlapyje.

Perkelti pele per norėdami pamatyti stoties vardą.

Tada spustelėkite, norėdami matyti oro stebėjimo ir prognozės.

Norėdami pakeisti žemėlapį: spustelėkite ant žalios mygtukų su juodo kryžiaus žemyn,; žalią mygtuką su brūkšneliu, jei norite nutolinti; arba žalių rodyklių gretimoms žemėlapius.


METAR-TAF: